TimeEST,TemperatureF,Dew PointF,Humidity,Sea Level PressureIn,VisibilityMPH,Wind Direction,Wind SpeedMPH,Gust SpeedMPH,PrecipitationIn,Events,Conditions,WindDirDegrees,DateUTC
12:53 AM,64.0,60.1,87,30.07,10.0,SSW,5.8,-,N/A,,Clear,210,2014-03-03 05:53:00
1:53 AM,63.0,60.1,90,30.06,10.0,SSW,4.6,-,N/A,,Clear,210,2014-03-03 06:53:00
2:53 AM,62.1,60.1,93,30.05,10.0,WSW,3.5,-,N/A,,Mostly Cloudy,240,2014-03-03 07:53:00
3:53 AM,63.0,60.1,90,30.03,10.0,SSW,5.8,-,N/A,,Scattered Clouds,200,2014-03-03 08:53:00
4:53 AM,61.0,59.0,93,30.03,10.0,SSW,5.8,-,N/A,,Clear,200,2014-03-03 09:53:00
5:53 AM,60.1,57.9,93,30.05,10.0,SSW,5.8,-,N/A,,Clear,210,2014-03-03 10:53:00
6:53 AM,59.0,57.0,93,30.06,10.0,West,8.1,-,N/A,,Clear,270,2014-03-03 11:53:00
7:53 AM,64.0,59.0,84,30.06,10.0,West,11.5,-,N/A,,Clear,270,2014-03-03 12:53:00
8:53 AM,71.1,55.9,59,30.07,10.0,SW,6.9,-,N/A,,Clear,220,2014-03-03 13:53:00
9:53 AM,75.0,59.0,57,30.08,10.0,SSW,11.5,-,N/A,,Clear,210,2014-03-03 14:53:00
10:53 AM,77.0,57.9,52,30.08,10.0,South,11.5,-,N/A,,Scattered Clouds,190,2014-03-03 15:53:00
11:53 AM,80.1,57.0,45,30.06,10.0,SW,10.4,-,N/A,,Scattered Clouds,220,2014-03-03 16:53:00
12:53 PM,82.0,55.0,39,30.03,10.0,SW,16.1,-,N/A,,Clear,230,2014-03-03 17:53:00
1:53 PM,82.9,53.1,36,29.99,10.0,WSW,17.3,21.9,N/A,,Clear,240,2014-03-03 18:53:00
2:53 PM,84.0,54.0,35,29.96,10.0,SW,12.7,-,N/A,,Clear,230,2014-03-03 19:53:00
3:53 PM,82.9,54.0,37,29.96,10.0,West,12.7,-,N/A,,Clear,260,2014-03-03 20:53:00
4:53 PM,82.0,53.1,37,29.96,10.0,WSW,15.0,-,N/A,,Clear,240,2014-03-03 21:53:00
5:53 PM,80.1,54.0,40,29.98,10.0,West,11.5,-,N/A,,Clear,260,2014-03-03 22:53:00
6:53 PM,75.0,54.0,48,29.99,10.0,West,6.9,-,N/A,,Clear,260,2014-03-03 23:53:00
7:53 PM,71.1,54.0,55,30.00,10.0,West,5.8,-,N/A,,Clear,270,2014-03-04 00:53:00
8:53 PM,69.1,54.0,58,30.02,10.0,WSW,8.1,-,N/A,,Clear,250,2014-03-04 01:53:00
9:53 PM,70.0,55.0,59,30.03,10.0,WSW,8.1,-,N/A,,Clear,250,2014-03-04 02:53:00
10:53 PM,66.9,57.0,70,30.04,10.0,West,6.9,-,N/A,,Clear,270,2014-03-04 03:53:00
11:53 PM,64.9,57.9,78,30.03,10.0,WSW,5.8,-,N/A,,Clear,240,2014-03-04 04:53:00